Location: Young's Pond
(41.2695°N, 72.7766°W)
Time: 00:04:49
(UTC-04:00)

CZ-4B R/B - Visible Passes

Search period start: 29 July 2016 00:00
Search period end: 08 August 2016 00:00
Orbit: 407 x 502 km, 97.5° (Epoch: 27 July)

Date Brightness Start Highest point End Pass type
(mag) Time Alt. Az. Time Alt. Az. Time Alt. Az.
30 Jul 4.6 00:57:07 11° NNW 00:57:07 11° NNW 00:57:17 10° NNW visible
31 Jul 4.5 00:23:18 14° N 00:23:18 14° N 00:23:50 10° N visible
31 Jul 4.5 23:49:29 11° NNE 23:49:29 11° NNE 23:49:41 10° NNE visible
02 Aug 4.7 00:49:23 11° NNW 00:49:23 11° NNW 00:49:34 10° NNW visible
03 Aug 4.6 00:15:33 13° N 00:15:33 13° N 00:15:58 10° N visible
05 Aug 4.8 00:41:37 11° NNW 00:41:37 11° NNW 00:41:46 10° NNW visible
06 Aug 4.7 00:07:46 11° N 00:07:46 11° N 00:07:59 10° N visible
